Location: Chemnitz
(49.5500°N, 11.5830°E)
Time: 09:58:30
(UTC+02:00)

ISS - Pass Details

Date: 12 February 2018
Orbit: 402 x 406 km, 51.6° (Epoch: 18 June)

Event Time Altitude Azimuth Distance (km) Brightness Sun altitude
Rises 18:26:00 0° 285° (WNW) 2,321 1.4 -10.0°
Reaches altitude 10° 18:28:23 10° 269° (W) 1,458 0.6 -10.3°
Maximum altitude 18:30:56 21° 218° (SW) 962 -1.3 -10.7°
Drops below altitude 10° 18:33:28 10° 166° (SSE) 1,453 -1.1 -11.2°
Enters shadow 18:36:24 -2° 148° (SSE) 2,528 0.0 -11.6°
